Tracking 31027 objects as of 19-Jul-2025
HD Live streaming from Space Station
objects crossing your sky now

STARLINK-3953

Track STARLINK-3953 now!
10-day predictions
STARLINK-3953 is classified as:


NORAD ID: 52559
Int'l Code: 2022-051AC
Perigee: 545.8 km
Apogee: 547.9 km
Inclination: 53.2 °
Period: 95.4 minutes
Semi major axis: 6917 km
RCS: Unknown
Launch date: May 13, 2022
Source: United States (US)
Launch site: AIR FORCE WESTERN TEST RANGE (AFWTR)
Your satellite tracking list
NOAA 16 DEB
Track 1 satellite(s)




NASA's NSSDC Master Catalog

Two Line Element Set (TLE):
1 52559U 22051AC  25199.10709150 -.00000309  00000-0 -13226-5 0  9998
2 52559  53.2173  92.3854 0001520  86.1438 273.9727 15.08843979176160
Source of the keplerian elements: AFSPC